Gillette, WY

6:57 PM MST on December 02, 2016 (GMT -0700)
Gillette-Campbell County

Weather History for KGCC - January, 2014

Change the Weather History Date:

Monday, January 27, 2014

  Actual Average Record
Temperature  
Mean Temperature 4 °F 26 °F  
Max Temperature 14 °F 37 °F 63 °F (2015)
Min Temperature -6 °F 15 °F -6 °F (2014)
Degree Days  
Heating Degree Days 61 39  
Month to date heating degree days 1012 1058  
Since 1 July heating degree days 4124 4199  
Cooling Degree Days 0 0  
Month to date cooling degree days 0 0  
Year to date cooling degree days 0 0  
Moisture  
Dew Point -2 °F    
Average Humidity 74    
Maximum Humidity 87    
Minimum Humidity 61    
Precipitation  
Precipitation T in 0.01 in 0.00 in (2016)
Month to date precipitation 0.37 0.32  
Year to date precipitation 0.37 0.32  
Sea Level Pressure  
Sea Level Pressure 30.41 in    
Wind  
Wind Speed 7 mph (NW)    
Max Wind Speed 18 mph    
Max Gust Speed 22 mph    
Visibility 10 miles    
Events      
T = Trace of Precipitation, MM = Missing Value Source: NWS Daily Summary

Daily Weather History Graph

Daily Weather History Graph

Search for Another Location

Airport or City:

Trip Planner

Search our weather history database for the weather conditions in past years. The results will help you decide how hot, cold, wet, or windy it might be!

Date:

Astronomy

Jan. 27, 2014 Rise Set
Actual Time 7:25 AM MST 5:04 PM MST
Civil Twilight 6:54 AM MST 5:36 PM MST
Nautical Twilight 6:19 AM MST 6:11 PM MST
Astronomical Twilight 5:44 AM MST 6:45 PM MST
Moon 4:11 AM MST (1/27) 1:51 PM MST (1/27)
Length of Visible Light 10h 41m
Length of Day
9h 39m
Waning Crescent, 14% of the Moon is Illuminated
Jan 27
Waning Crescent
Jan 30
New
Feb 6
First Quarter
Feb 14
Full
Feb 22
Last Quarter

Hourly Weather History & Observations

Time (MST) Temp. Windchill Dew Point Humidity Pressure Visibility Wind Dir Wind Speed Gust Speed Precip Events Conditions
12:53 AM 3.0 °F - -2.0 °F 80% 30.38 in 10.0 mi Calm Calm - N/A   Clear
1:53 AM 1.0 °F - -2.9 °F 83% 30.39 in 10.0 mi Calm Calm - N/A   Clear
2:53 AM -0.9 °F - -5.1 °F 83% 30.40 in 10.0 mi Calm Calm - N/A   Clear
3:53 AM -2.0 °F -10.1 °F -6.0 °F 83% 30.41 in 10.0 mi SW 3.5 mph - N/A   Clear
4:53 AM -2.9 °F - -8.0 °F 79% 30.42 in 10.0 mi Calm Calm - N/A   Clear
5:53 AM -4.0 °F - -9.0 °F 79% 30.41 in 10.0 mi Calm Calm - N/A   Clear
6:53 AM -5.1 °F - -9.9 °F 80% 30.43 in 10.0 mi Calm Calm - N/A   Clear
7:53 AM -4.0 °F - -9.0 °F 79% 30.43 in 10.0 mi Calm Calm - N/A   Clear
8:53 AM 3.0 °F - -4.0 °F 73% 30.42 in 10.0 mi Calm Calm - N/A   Clear
9:53 AM 8.1 °F -5.3 °F -2.9 °F 61% 30.41 in 10.0 mi WNW 9.2 mph - N/A   Clear
10:53 AM 9.0 °F -5.9 °F -2.0 °F 61% 30.41 in 10.0 mi NW 11.5 mph - N/A   Clear
11:53 AM 10.9 °F -4.1 °F 1.0 °F 64% 30.41 in 10.0 mi WNW 12.7 mph - N/A   Overcast
12:53 PM 10.9 °F -5.4 °F 1.9 °F 67% 30.38 in 10.0 mi NW 15.0 mph - N/A   Overcast
1:53 PM 12.0 °F -4.5 °F 1.0 °F 61% 30.36 in 10.0 mi NW 16.1 mph - N/A   Overcast
2:53 PM 12.9 °F -2.2 °F 1.0 °F 59% 30.38 in 10.0 mi NNW 13.8 mph - N/A   Overcast
3:53 PM 12.0 °F -3.4 °F 1.9 °F 64% 30.39 in 10.0 mi NW 13.8 mph - N/A   Overcast
4:53 PM 10.9 °F -4.1 °F 3.0 °F 70% 30.39 in 10.0 mi NW 12.7 mph - N/A   Overcast
5:53 PM 10.9 °F -3.4 °F -0.0 °F 61% 30.41 in 10.0 mi NW 11.5 mph - N/A   Overcast
6:53 PM 8.1 °F -2.0 °F 1.0 °F 73% 30.44 in 10.0 mi NNW 5.8 mph - N/A   Overcast
7:53 PM 9.0 °F -0.9 °F 3.9 °F 80% 30.45 in 5.0 mi NNW 5.8 mph - 0.00 in   Haze
8:53 PM 10.0 °F -1.9 °F 3.0 °F 73% 30.43 in 10.0 mi NNW 8.1 mph - N/A   Overcast
9:53 PM 7.0 °F -6.6 °F 1.0 °F 77% 30.43 in 10.0 mi NNW 9.2 mph - N/A   Mostly Cloudy
10:53 PM 3.0 °F -10.5 °F -2.0 °F 80% 30.44 in 10.0 mi NW 8.1 mph - N/A   Clear
11:53 PM 3.0 °F -11.5 °F -2.0 °F 80% 30.44 in 10.0 mi WNW 9.2 mph - N/A   Clear